Time,TemperatureF,DewpointF,PressureIn,WindDirection,WindDirectionDegrees,WindSpeedMPH,WindSpeedGustMPH,Humidity,HourlyPrecipIn,Conditions,Clouds,dailyrainin,SoftwareType,DateUTC
2013-02-06 08:59:00,-999.0,-99.9,0.00,North,-999,-999.0,-999.0,-999,0.00,,,0.00,weatherlink.com 1.10,2013-02-06 08:59:00,
2013-02-06 09:06:00,-999.0,-99.9,0.00,North,-999,-999.0,-999.0,-999,0.00,,,0.00,weatherlink.com 1.10,2013-02-06 09:06:00,
2013-02-06 09:20:00,36.7,32.0,29.79,North,358,9.0,10.0,82,0.00,,,0.00,weatherlink.com 1.10,2013-02-06 09:20:00,
2013-02-06 09:35:00,37.6,32.0,29.79,North,9,7.0,17.0,81,0.00,,,0.00,weatherlink.com 1.10,2013-02-06 09:35:00,
2013-02-06 09:50:00,38.4,33.0,29.79,NNE,16,2.0,15.0,80,0.00,,,0.00,weatherlink.com 1.10,2013-02-06 09:50:00,
2013-02-06 10:06:00,39.0,34.0,29.80,NNW,345,10.0,16.0,81,0.00,,,0.00,weatherlink.com 1.10,2013-02-06 10:06:00,
2013-02-06 10:21:00,39.1,33.0,29.80,NNE,33,13.0,20.0,78,0.00,,,0.00,weatherlink.com 1.10,2013-02-06 10:21:00,
2013-02-06 10:36:00,40.1,33.0,29.81,NNE,19,6.0,18.0,77,0.00,,,0.00,weatherlink.com 1.10,2013-02-06 10:36:00,
2013-02-06 10:51:00,39.8,33.0,29.81,NNE,33,6.0,21.0,78,0.00,,,0.00,weatherlink.com 1.10,2013-02-06 10:51:00,
2013-02-06 11:06:00,41.2,35.0,29.82,NNE,16,8.0,16.0,79,0.00,,,0.00,weatherlink.com 1.10,2013-02-06 11:06:00,
2013-02-06 11:21:00,41.2,34.0,29.82,North,11,8.0,19.0,76,0.00,,,0.00,weatherlink.com 1.10,2013-02-06 11:21:00,
2013-02-06 11:36:00,41.7,34.0,29.82,North,5,6.0,18.0,75,0.00,,,0.00,weatherlink.com 1.10,2013-02-06 11:36:00,
2013-02-06 11:51:00,41.2,34.0,29.83,NNE,19,6.0,16.0,74,0.00,,,0.00,weatherlink.com 1.10,2013-02-06 11:51:00,
2013-02-06 12:21:00,41.6,32.0,29.83,NNE,27,6.0,22.0,70,0.00,,,0.00,weatherlink.com 1.10,2013-02-06 12:21:00,
2013-02-06 12:36:00,42.0,33.0,29.84,NE,53,10.0,20.0,70,0.00,,,0.00,weatherlink.com 1.10,2013-02-06 12:36:00,
2013-02-06 12:51:00,43.2,34.0,29.85,NNE,25,17.0,17.0,70,0.00,,,0.00,weatherlink.com 1.10,2013-02-06 12:51:00,
2013-02-06 13:06:00,42.5,32.0,29.85,NNE,25,22.0,24.0,67,0.00,,,0.00,weatherlink.com 1.10,2013-02-06 13:06:00,
2013-02-06 13:21:00,42.2,31.0,29.86,NNE,13,13.0,26.0,66,0.00,,,0.00,weatherlink.com 1.10,2013-02-06 13:21:00,
2013-02-06 13:36:00,42.3,32.0,29.85,NNE,15,17.0,25.0,66,0.00,,,0.00,weatherlink.com 1.10,2013-02-06 13:36:00,
2013-02-06 13:51:00,42.0,32.0,29.85,NNE,19,7.0,20.0,68,0.00,,,0.00,weatherlink.com 1.10,2013-02-06 13:51:00,
2013-02-06 14:06:00,42.1,32.0,29.86,NNE,19,14.0,24.0,67,0.00,,,0.00,weatherlink.com 1.10,2013-02-06 14:06:00,
2013-02-06 14:21:00,42.1,32.0,29.86,North,5,5.0,21.0,68,0.00,,,0.00,weatherlink.com 1.10,2013-02-06 14:21:00,
2013-02-06 14:36:00,42.3,32.0,29.87,NNE,32,9.0,20.0,67,0.00,,,0.00,weatherlink.com 1.10,2013-02-06 14:36:00,
2013-02-06 14:51:00,42.2,31.0,29.87,North,9,15.0,23.0,66,0.00,,,0.00,weatherlink.com 1.10,2013-02-06 14:51:00,
2013-02-06 15:06:00,42.5,33.0,29.88,NE,36,6.0,20.0,69,0.00,,,0.00,weatherlink.com 1.10,2013-02-06 15:06:00,
2013-02-06 15:21:00,41.7,31.0,29.88,NE,36,14.0,20.0,66,0.00,,,0.00,weatherlink.com 1.10,2013-02-06 15:21:00,
2013-02-06 15:36:00,42.2,31.0,29.88,ENE,61,4.0,16.0,66,0.00,,,0.00,weatherlink.com 1.10,2013-02-06 15:36:00,
2013-02-06 15:51:00,42.0,32.0,29.88,NNE,22,7.0,17.0,67,0.00,,,0.00,weatherlink.com 1.10,2013-02-06 15:51:00,
2013-02-06 16:06:00,41.8,31.0,29.89,North,11,6.0,15.0,66,0.00,,,0.00,weatherlink.com 1.10,2013-02-06 16:06:00,
2013-02-06 16:22:00,41.6,31.0,29.89,NNE,24,5.0,14.0,66,0.00,,,0.00,weatherlink.com 1.10,2013-02-06 16:22:00,
2013-02-06 16:37:00,41.7,31.0,29.90,NNE,27,2.0,10.0,66,0.00,,,0.00,weatherlink.com 1.10,2013-02-06 16:37:00,
2013-02-06 16:52:00,41.4,31.0,29.90,NNE,27,7.0,16.0,67,0.00,,,0.00,weatherlink.com 1.10,2013-02-06 16:52:00,
2013-02-06 17:07:00,40.9,31.0,29.91,NE,44,8.0,13.0,67,0.00,,,0.00,weatherlink.com 1.10,2013-02-06 17:07:00,
2013-02-06 17:22:00,40.6,32.0,29.91,North,360,12.0,12.0,70,0.00,,,0.00,weatherlink.com 1.10,2013-02-06 17:22:00,
2013-02-06 17:38:00,39.9,34.0,29.92,NNE,27,6.0,11.0,78,0.00,,,0.00,weatherlink.com 1.10,2013-02-06 17:38:00,
2013-02-06 17:52:00,39.3,34.0,29.92,NNW,345,7.0,13.0,80,0.00,,,0.00,weatherlink.com 1.10,2013-02-06 17:52:00,
2013-02-06 18:07:00,38.8,33.0,29.93,NNE,17,6.0,13.0,81,0.00,,,0.00,weatherlink.com 1.10,2013-02-06 18:07:00,
2013-02-06 18:22:00,38.6,33.0,29.93,North,9,4.0,13.0,81,0.00,,,0.00,weatherlink.com 1.10,2013-02-06 18:22:00,
2013-02-06 18:37:00,38.1,33.0,29.93,North,11,3.0,9.0,82,0.00,,,0.00,weatherlink.com 1.10,2013-02-06 18:37:00,
2013-02-06 18:53:00,37.3,33.0,29.94,WNW,297,3.0,6.0,84,0.00,,,0.00,weatherlink.com 1.10,2013-02-06 18:53:00,
2013-02-06 19:07:00,36.9,33.0,29.94,NW,316,2.0,6.0,85,0.00,,,0.00,weatherlink.com 1.10,2013-02-06 19:07:00,
2013-02-06 19:22:00,36.8,33.0,29.94,North,356,4.0,11.0,85,0.00,,,0.00,weatherlink.com 1.10,2013-02-06 19:22:00,
2013-02-06 19:37:00,37.0,33.0,29.94,North,350,8.0,12.0,84,0.00,,,0.00,weatherlink.com 1.10,2013-02-06 19:37:00,
2013-02-06 19:52:00,36.7,32.0,29.95,North,356,6.0,9.0,84,0.00,,,0.00,weatherlink.com 1.10,2013-02-06 19:52:00,
2013-02-06 20:07:00,36.5,32.0,29.95,NNW,340,6.0,10.0,85,0.00,,,0.00,weatherlink.com 1.10,2013-02-06 20:07:00,
2013-02-06 20:22:00,36.4,32.0,29.95,NNW,345,4.0,12.0,85,0.00,,,0.00,weatherlink.com 1.10,2013-02-06 20:22:00,
2013-02-06 20:37:00,36.2,32.0,29.95,North,1,5.0,10.0,85,0.00,,,0.00,weatherlink.com 1.10,2013-02-06 20:37:00,
2013-02-06 21:22:00,35.5,32.0,29.96,North,350,6.0,9.0,86,0.00,,,0.00,weatherlink.com 1.10,2013-02-06 21:22:00,
2013-02-06 21:37:00,35.6,32.0,29.96,NW,310,4.0,10.0,86,0.00,,,0.00,weatherlink.com 1.10,2013-02-06 21:37:00,
2013-02-06 21:52:00,35.0,32.0,29.96,North,356,2.0,7.0,87,0.00,,,0.00,weatherlink.com 1.10,2013-02-06 21:52:00,
2013-02-06 22:07:00,35.1,32.0,29.96,NW,325,4.0,8.0,87,0.00,,,0.00,weatherlink.com 1.10,2013-02-06 22:07:00,
2013-02-06 22:22:00,34.6,31.0,29.96,NW,314,2.0,5.0,87,0.00,,,0.00,weatherlink.com 1.10,2013-02-06 22:22:00,
2013-02-06 22:37:00,34.3,31.0,29.96,WNW,296,3.0,5.0,88,0.00,,,0.00,weatherlink.com 1.10,2013-02-06 22:37:00,
2013-02-06 22:52:00,34.7,32.0,29.96,NNW,345,5.0,8.0,88,0.00,,,0.00,weatherlink.com 1.10,2013-02-06 22:52:00,
2013-02-06 23:07:00,34.7,31.0,29.97,North,350,3.0,8.0,87,0.00,,,0.00,weatherlink.com 1.10,2013-02-06 23:07:00,
2013-02-06 23:22:00,34.7,31.0,29.97,NW,321,3.0,9.0,87,0.00,,,0.00,weatherlink.com 1.10,2013-02-06 23:22:00,
2013-02-06 23:37:00,34.9,31.0,29.96,NW,316,5.0,9.0,87,0.00,,,0.00,weatherlink.com 1.10,2013-02-06 23:37:00,
2013-02-06 23:52:00,35.0,32.0,29.97,NW,318,8.0,8.0,87,0.00,,,0.00,weatherlink.com 1.10,2013-02-06 23:52:00,